Regional Weather Roundup
Issued by NWS

Home | Current Version | Previous Version | Graphics & Text | Print | Product List | Glossary On
Versions: 1 2 3 4 5 6 7 8 9 10 11 12 13 14 15 16 17 18 19 20 21 22 23 24 25 26 27 28 29 30 31 32 33 34 35 36 37 38 39 40 41 42 43 44 45 46 47 48 49 50
000
ASUS43 KMPX 282001
RWRMN
WEATHER ROUNDUP FOR MINNESOTA
NATIONAL WEATHER SERVICE TWIN CITIES/CHANHASSEN MN
300 PM CDT TUE JUL 28 2015


NOTE: "FAIR" INDICATES FEW OR NO CLOUDS BELOW 12,000 FEET WITH NO
SIGNIFICANT WEATHER AND/OR OBSTRUCTIONS TO VISIBILITY. N/A MEANS
CURRENT SKY AND/OR WEATHER CONDITIONS ARE NOT AVAILABLE.

MNZ060>063-068>070-282100-
   Twin Cities Metro

CITY           SKY/WX    TMP DP  RH WIND       PRES   REMARKS
TWIN CITIES    PTSUNNY   83  69  62 SW14G22   29.82S
ST PAUL        MOSUNNY   83  71  67 SW10      29.81F
CRYSTAL        PTSUNNY   83  69  62 SW13      29.81R
BLAINE         CLOUDY    82  70  65 S13G18    29.82S
LAKEVILLE      MOSUNNY   82  73  74 SW6       29.83S
EDEN PRAIRIE   CLOUDY    82  71  69 SW12      29.82R
SOUTH ST PAUL  MOSUNNY   84  71  64 SW13      29.81F
LAKE ELMO      FAIR      82  72  69 S12G17    29.83F
$$
MNZ001>005-007-008-013>017-022>024-027-028-282100-
   Northwest Minnesota

CITY           SKY/WX    TMP DP  RH WIND       PRES   REMARKS
BEMIDJI        MOSUNNY   80  64  59 SW20G29   29.71R
HALLOCK        MOSUNNY   77  61  57 SW23G33   29.56S
ROSEAU         MOSUNNY   81  68  65 S22       29.58R
WARROAD        MOSUNNY   81  70  69 S13G25    29.58F
THIEF RVR FALL PTSUNNY   73  61  64 SW18G29   29.65R
CROOKSTON      PTSUNNY   75  61  60 SW22G28   29.66R
FOSSTON        MOSUNNY   75  64  69 SW21G28   29.71R
DETROIT LAKES  SUNNY     77  59  53 SW15G23   29.76S
MOORHEAD       MOSUNNY   77  57  50 SW15G25   29.73R
PARK RAPIDS    MOSUNNY   82  64  54 SW18G26   29.75R
MAHNOMEN       FAIR      75  62  65 SW14G23   29.72R
$$
MNZ006-009>011-018-025>026-282100-
   North Central Minnesota

CITY           SKY/WX    TMP DP  RH WIND       PRES   REMARKS
BAUDETTE       PTSUNNY   78  67  68 S18G26    29.62S
FLAG ISLAND    MOSUNNY   79  66  65 S13G21    29.56S
INTL FALLS     CLOUDY    78  70  76 S10G22    29.66F
WASKISH        PTSUNNY   79  72  78 S9        29.67S
BIG FORK       SUNNY     81  68  65 S14G22    29.73R
LONGVILLE      PTSUNNY   79  66  65 S13G18    29.75S
GRAND RAPIDS   MOSUNNY   79  66  65 S13G20    29.77S
CRANE LAKE     CLOUDY    79  68  69 S12G18    29.72F
ORR            CLOUDY    81  64  57 S9G18     29.71R
COOK           PTSUNNY   81  66  61 S13G23    29.75R
WALKER         CLOUDY    77  66  68 S13G23    29.73S
$$
MNZ012-019>021-037-282100-
   Northeast Minnesota

CITY           SKY/WX    TMP DP  RH WIND       PRES   REMARKS
DULUTH         CLOUDY    83  68  60 SW17G31   29.79R
ELY            MOSUNNY   81  66  61 SW12G22   29.76S
HIBBING        CLOUDY    79  66  64 SW10G23   29.77R
EVELETH        CLOUDY    81  63  54 SW20G26   29.78R
DULUTH HARBOR  PTSUNNY   86  70  58 SW22G30   29.76R HX  90
TWO HARBORS    MOSUNNY   88  73  62 SW16G24   29.76S HX  96
SILVER BAY     MOSUNNY   82  68  61 S15G23    29.77R
GRAND MARAIS     N/A     70  59  68 NE8       29.81S
G MARAIS ARPRT PTSUNNY   68  61  77 SE6       29.87R
$$
MNZ029>031-032-039>041-046>048-054>057-064-282100-
   West Central Minnesota

CITY           SKY/WX    TMP DP  RH WIND       PRES   REMARKS
FERGUS FALLS   SUNNY     77  61  57 W18       29.77R
WHEATON        SUNNY     73  57  56 SW13G23   29.82R
MORRIS         SUNNY     79  61  53 W15G22    29.80R
ALEXANDRIA     CLOUDY    78  68  71 W16       29.81S
ELBOW LAKE     FAIR      77  62  60 W14       29.80R
WADENA         MOSUNNY   81  64  57 SW17G26   29.76S
GLENWOOD       MOSUNNY   75  68  78 SW15      29.82S
APPLETON       MOSUNNY   81  61  50 W14       29.81S
BENSON         MOSUNNY   81  64  57 NW14      29.81S
ORTONVILLE     SUNNY     79  59  50 W10       29.82S
MADISON        SUNNY     79  61  53 W10G18    29.83S
WILLMAR        PTSUNNY   81  73  78 W9        29.83R
$$
MNZ033>034-036-042>043-049>051-058-059-282100-
   Central Minnesota

CITY           SKY/WX    TMP DP  RH WIND       PRES   REMARKS
ST CLOUD       CLOUDY    80  70  71 S14       29.81R
SAUK CENTRE    CLOUDY    75  69  79 W12G17    29.81R
PAYNESVILLE    CLOUDY    77  68  74 SE8       29.82R
AITKIN         PTSUNNY   81  68  65 SW10G18   29.77R
PINE RIVER     PTSUNNY   79  68  69 S12G18    29.79S
BRAINERD       CLOUDY    81  68  64 S14G23    29.78S
STAPLES        PTSUNNY   79  66  65 SW21      29.78R
LONG PRAIRIE   CLOUDY    75  66  73 SW14G25   29.81R
LITTLE FALLS   CLOUDY    79  66  65 SW7       29.79S
LITCHFIELD     MOSUNNY   82  73  74 SW7       29.82F
BUFFALO        CLOUDY    80  70  71 S7        29.83S
MAPLE LAKE     CLOUDY    81  72  74 SW6       29.83S
$$
MNZ037-044-045-052-053-282100-
   East Central Minnesota

CITY           SKY/WX    TMP DP  RH WIND       PRES   REMARKS
PRINCETON      MOSUNNY   82  70  65 S12G18    29.82R
MORA           PTSUNNY   79  64  61 SW9G17    29.82S
CAMBRIDGE      PTSUNNY   82  68  61 SW12      29.80S
RUSH CITY      MOSUNNY   81  69  66 S9G20     29.81S
MOOSE LAKE     PTSUNNY   81  68  65 SW12G17   29.78R
HINCKLEY       MOCLDY    81  72  74 S12G18    29.81R
CLOQUET        CLOUDY    82  66  57 SW14      29.80R
MCGREGOR       MOSUNNY   81  68  65 SW14G20   29.79S
$$
MNZ071>073-080-081-089-090-097-098-282100-
   Southwest Minnesota

CITY           SKY/WX    TMP DP  RH WIND       PRES   REMARKS
MONTEVIDEO     MOSUNNY   82  77  83 NW12G20   29.84R HX  91
GRANITE FALLS  MOSUNNY   81  70  69 W13       29.84R
CANBY          SUNNY     80  56  43 W15       29.86S
MARSHALL       MOSUNNY   81  61  50 NW20      29.85S
REDWOOD FALLS  CLOUDY    82  71  69 W15       29.81R
OLIVIA         PTSUNNY   79  68  69 W14       29.81S
PIPESTONE      SUNNY     77  59  53 NW17      29.89R
WINDOM         PTSUNNY   79  70  73 SW10      29.86S
WORTHINGTON    CLOUDY    73  68  83 W8        29.88S
JACKSON        CLOUDY    79  72  78 SW12      29.88S
TRACY          CLOUDY    79  72  78 NW8       29.86R
SLAYTON        PTSUNNY   77  69  77 W15G21    29.88S
$$
MNZ065>067-074>077-082>085-091>093-282100-
   South Central Minnesota

CITY           SKY/WX    TMP DP  RH WIND       PRES   REMARKS
MANKATO        CLOUDY    81  72  74 SW14      29.84R
NEW ULM        PTSUNNY   81  72  74 SW10      29.82S
ST JAMES       PTSUNNY   82  72  69 SW13      29.85S
FAIRMONT       CLOUDY    81  66  61 SW9       29.87R
GLENCOE        CLOUDY    82  74  78 S6        29.82F
FARIBAULT      MOSUNNY   84  73  70 S8        29.85R HX  91
OWATONNA       MOSUNNY   84  73  70 S12G18    29.85S HX  91
WASECA         MOSUNNY   82  72  69 S12G18    29.87R
ALBERT LEA     MOSUNNY   82  72  69 SW10G20   29.87R
$$
MNZ078>079-086>088-094>096-282100-
   Southeast Minnesota

CITY           SKY/WX    TMP DP  RH WIND       PRES   REMARKS
ROCHESTER      MOSUNNY   82  75  79 S14       29.87R
RED WING       PTSUNNY   84  72  65 SW10      29.81F
STANTON        PTSUNNY   84  72  67 SW10      29.82S
DODGE CENTER   MOSUNNY   81  73  78 SW14      29.86S
WINONA         PTSUNNY   82  72  69 S3        29.83S
AUSTIN         MOSUNNY   82  72  69 SW13      29.87R
PRESTON        MOSUNNY   81  70  68 SW10      29.88R
$$
ABBREVIATIONS USED IN REMARKS
   TC - TEMPERATURES IN CELSIUS
  WCI - WIND CHILL INDEX
   HX - HEAT INDEX
  VSB - VISIBILITY
$$



USA.gov is the U.S. government's official web portal to all federal, state and local government web resources and services.